Location: Unspecified
(49.2170°N, 0.0000°E)
Time: 23:20:50
(UTC+00:00)

Explorer 7 - Pass Details

Date: 23 January 2021
Orbit: 484 x 677 km, 50.3° (Epoch: 06 March)

Event Time Altitude Azimuth Distance (km) Brightness Sun altitude
Exits shadow 04:29:55 18° 116° (ESE) 1,318 9.3 -31.1°
Drops below altitude 10° 04:31:42 10° 92° (E) 1,755 10.3 -30.8°
Sets 04:34:23 0° 76° (ENE) 2,683 11.5 -30.4°
